TimeEDT,TemperatureF,Dew PointF,Humidity,Sea Level PressureIn,VisibilityMPH,Wind Direction,Wind SpeedMPH,Gust SpeedMPH,PrecipitationIn,Events,Conditions,WindDirDegrees,DateUTC
12:53 AM,30.9,16.0,54,30.33,10.0,South,6.9,-,N/A,,Clear,190,2013-04-04 04:53:00
1:53 AM,30.9,16.0,54,30.33,10.0,SW,8.1,-,N/A,,Clear,220,2013-04-04 05:53:00
2:53 AM,30.0,15.1,54,30.31,10.0,South,8.1,-,N/A,,Clear,190,2013-04-04 06:53:00
3:53 AM,30.0,15.1,54,30.28,10.0,SSW,8.1,-,N/A,,Clear,200,2013-04-04 07:53:00
4:53 AM,30.0,15.1,54,30.27,10.0,SSW,9.2,-,N/A,,Clear,200,2013-04-04 08:53:00
5:53 AM,30.0,16.0,56,30.26,10.0,SSW,9.2,-,N/A,,Clear,200,2013-04-04 09:53:00
6:53 AM,30.0,16.0,56,30.25,10.0,SSW,9.2,-,N/A,,Clear,200,2013-04-04 10:53:00
7:53 AM,30.9,16.0,54,30.23,10.0,SSW,9.2,-,N/A,,Clear,200,2013-04-04 11:53:00
8:53 AM,34.0,16.0,48,30.22,10.0,SSW,11.5,-,N/A,,Clear,210,2013-04-04 12:53:00
9:53 AM,37.9,16.0,41,30.19,10.0,SW,17.3,-,N/A,,Clear,220,2013-04-04 13:53:00
10:53 AM,43.0,18.0,37,30.15,10.0,SW,16.1,-,N/A,,Clear,220,2013-04-04 14:53:00
11:53 AM,46.0,19.0,34,30.12,10.0,SW,21.9,-,N/A,,Clear,230,2013-04-04 15:53:00
12:53 PM,48.9,21.0,33,30.09,10.0,WSW,19.6,29.9,N/A,,Clear,240,2013-04-04 16:53:00
1:53 PM,51.1,21.9,32,30.06,10.0,SW,20.7,26.5,N/A,,Clear,230,2013-04-04 17:53:00
2:53 PM,53.1,21.0,29,30.01,10.0,SW,17.3,26.5,N/A,,Clear,220,2013-04-04 18:53:00
3:53 PM,55.0,21.9,28,29.98,10.0,WSW,21.9,28.8,N/A,,Clear,250,2013-04-04 19:53:00
4:53 PM,55.0,21.0,27,29.95,10.0,WSW,12.7,27.6,N/A,,Clear,240,2013-04-04 20:53:00
5:53 PM,54.0,19.9,26,29.94,10.0,WSW,15.0,-,N/A,,Clear,240,2013-04-04 21:53:00
6:53 PM,52.0,19.9,28,29.94,10.0,SW,16.1,-,N/A,,Mostly Cloudy,230,2013-04-04 22:53:00
7:53 PM,50.0,23.0,35,29.96,10.0,WSW,10.4,-,N/A,,Overcast,250,2013-04-04 23:53:00
9:53 PM,46.9,25.0,42,29.98,10.0,West,5.8,-,N/A,,Overcast,270,2013-04-05 01:53:00
10:53 PM,45.0,27.0,49,29.98,10.0,NW,4.6,-,N/A,,Mostly Cloudy,320,2013-04-05 02:53:00
11:53 PM,41.0,28.0,60,29.97,10.0,North,5.8,-,N/A,,Scattered Clouds,350,2013-04-05 03:53:00